Погода в Толе Би

Казахстан     43°40′33″N   73°45′43″E
темп.,
°C
ветер,
м/с
пор.,
м/с
влажн.,
%
обл.,
%
осадки,
мм/ч
давл.,
гПа
погр.,
м
28 июня, вт
вт2800:00+30юв222358 0.0 100522
03:00+28всв473023 0.0 1005188
06:00+28всв482875 0.0 1005296
09:00+32ю45265 0.0 1006461
12:00+36сз23180 0.0 10042554
15:00+38сз47164 0.0 10034081
18:00+39сз46147 0.0 10024167
21:00+32всв232021 0.0 100113
29 июня, ср
ср2900:00+30ююв6123257 0.0 1002323
03:00+28ю48335 0.0 1002212
06:00+24ююв47390 0.0 1003103
09:00+32ююз34200 0.0 1003555
12:00+38зюз45113 0.0 10012586
15:00+40зсз5580 0.0 10002901
18:00+40зсз2490 0.0 9992728
21:00+34вюв34123 0.0 99817
30 июня, чт
чт3000:00+28юв37275 0.0 998156
03:00+28юв61128100 0.0 997183
06:00+26ююв5112865 0.0 997202
09:00+34зсз711203 0.0 998832
12:00+36зсз10151619 0.0 9991911
15:00+37зсз811150 0.0 9992615
18:00+36зсз810150 0.1 10003030
21:00+30сз510230 0.0 1001201
1 июля, пт
пт100:00+25зсз35265 0.0 100485
03:00+22зсз44190 0.0 100655
06:00+20сз22210 0.0 100722
09:00+26сз12140 0.0 1008643
12:00+30зсз34110 0.0 10071778
15:00+33зсз46100 0.0 10052155
18:00+33зсз45100 0.0 10042277
21:00+26с44140 0.0 100531
2 июля, сб
сб200:00+23св33150 0.0 100523
03:00+21св22170 0.0 100411
06:00+21ююв45190 0.0 100448
09:00+28ю6616100 0.0 1003426
12:00+34з571598 0.0 10012119
15:00+37зсз59148 0.0 9983400
18:00+35зсз91216100 0.0 9983461
21:00+31зсз81419100 0.0 999549